nws-alerts: Checking more than four warning/county codes can delay the loading of your pages. You should use a cron job to get the data.
EllijayWeather Station Historical Data
Daily Summary for November 28, 2018 Units:  English    Metric   Both
Daily Weekly Monthly Yearly Custom
  High: Low: Average:
Temperature: 40.6 °F 24.1 °F 30.4 °F
Dew Point: 24.6 °F 16.0 °F 19.7 °F
Humidity: 78% 43% 65%
Wind Speed: 8.9mph 0.0mph 0.3mph
Wind Gust: 11.0mph - -
Wind- - WNW
Pressure: 30.23 in 30.10 in -
Precipitation: 0.00 in    
Historical Graphs
 
 
Tabular Data for November 28, 2018
Time Temperature Dew Point Pressure Wind Wind Speed Wind Gust Humidity Rainfall Rate (Hourly) solar
00:04 28.0 °F 18.9 °F 30.11 in Calm     68% 0.00 in meteobridge W/m2
00:09 28.0 °F 18.9 °F 30.11 in Calm   4.0 mph 68% 0.00 in meteobridge W/m2
00:14 27.9 °F 18.7 °F 30.11 in Calm   6.0 mph 68% 0.00 in meteobridge W/m2
00:19 27.9 °F 18.7 °F 30.12 in NW 0.9 mph 6.0 mph 68% 0.00 in meteobridge W/m2
00:24 27.9 °F 18.7 °F 30.11 in Calm   4.0 mph 68% 0.00 in meteobridge W/m2
00:29 27.9 °F 18.7 °F 30.11 in NE 2.0 mph 6.0 mph 68% 0.00 in meteobridge W/m2
00:34 27.7 °F 18.5 °F 30.11 in Calm   2.0 mph 68% 0.00 in meteobridge W/m2
00:39 27.7 °F 18.5 °F 30.10 in Calm   1.0 mph 68% 0.00 in meteobridge W/m2
00:44 27.5 °F 18.7 °F 30.10 in Calm     69% 0.00 in meteobridge W/m2
00:49 27.3 °F 18.5 °F 30.10 in Calm   2.0 mph 69% 0.00 in meteobridge W/m2
00:54 27.3 °F 18.5 °F 30.10 in Calm   1.0 mph 69% 0.00 in meteobridge W/m2
00:59 27.3 °F 18.9 °F 30.10 in Calm     70% 0.00 in meteobridge W/m2
01:04 27.1 °F 18.7 °F 30.10 in Calm     70% 0.00 in meteobridge W/m2
01:09 27.1 °F 19.0 °F 30.10 in Calm   1.0 mph 71% 0.00 in meteobridge W/m2
01:14 27.0 °F 18.9 °F 30.11 in Calm     71% 0.00 in meteobridge W/m2
01:19 27.0 °F 19.2 °F 30.11 in Calm     72% 0.00 in meteobridge W/m2
01:24 27.0 °F 19.2 °F 30.11 in Calm     72% 0.00 in meteobridge W/m2
01:29 27.0 °F 19.4 °F 30.11 in Calm     73% 0.00 in meteobridge W/m2
01:34 26.8 °F 19.2 °F 30.11 in Calm     73% 0.00 in meteobridge W/m2
01:39 26.8 °F 19.2 °F 30.12 in Calm     73% 0.00 in meteobridge W/m2
01:44 26.8 °F 19.2 °F 30.11 in Calm   1.0 mph 73% 0.00 in meteobridge W/m2
01:49 26.8 °F 19.6 °F 30.11 in Calm     74% 0.00 in meteobridge W/m2
01:54 26.6 °F 19.4 °F 30.11 in Calm     74% 0.00 in meteobridge W/m2
01:59 26.6 °F 19.4 °F 30.11 in Calm   1.0 mph 74% 0.00 in meteobridge W/m2
02:04 26.4 °F 19.2 °F 30.12 in Calm     74% 0.00 in meteobridge W/m2
02:09 26.4 °F 19.6 °F 30.12 in Calm     75% 0.00 in meteobridge W/m2
02:14 26.4 °F 19.6 °F 30.11 in Calm     75% 0.00 in meteobridge W/m2
02:19 26.4 °F 19.6 °F 30.11 in Calm   2.0 mph 75% 0.00 in meteobridge W/m2
02:24 26.2 °F 19.0 °F 30.11 in Calm   3.0 mph 74% 0.00 in meteobridge W/m2
02:29 26.2 °F 19.4 °F 30.11 in Calm   4.0 mph 75% 0.00 in meteobridge W/m2
02:34 26.2 °F 19.4 °F 30.12 in Calm   1.0 mph 75% 0.00 in meteobridge W/m2
02:39 26.2 °F 19.4 °F 30.12 in Calm     75% 0.00 in meteobridge W/m2
02:44 26.2 °F 19.4 °F 30.12 in Calm   3.0 mph 75% 0.00 in meteobridge W/m2
02:49 26.1 °F 18.9 °F 30.12 in Calm     74% 0.00 in meteobridge W/m2
02:54 26.1 °F 18.9 °F 30.12 in Calm   5.0 mph 74% 0.00 in meteobridge W/m2
02:59 26.1 °F 18.7 °F 30.12 in Calm   8.0 mph 73% 0.00 in meteobridge W/m2
03:04 26.1 °F 18.7 °F 30.12 in Calm   2.0 mph 73% 0.00 in meteobridge W/m2
03:09 26.1 °F 18.7 °F 30.12 in Calm   1.0 mph 73% 0.00 in meteobridge W/m2
03:14 25.9 °F 18.5 °F 30.13 in NW 8.9 mph 9.0 mph 73% 0.00 in meteobridge W/m2
03:19 25.9 °F 18.1 °F 30.13 in Calm   9.0 mph 72% 0.00 in meteobridge W/m2
03:24 25.9 °F 18.1 °F 30.13 in NW 0.9 mph 6.0 mph 72% 0.00 in meteobridge W/m2
03:29 25.7 °F 18.0 °F 30.13 in NW 2.0 mph 4.0 mph 72% 0.00 in meteobridge W/m2
03:34 25.7 °F 18.0 °F 30.13 in NW 0.9 mph 3.0 mph 72% 0.00 in meteobridge W/m2
03:39 25.7 °F 18.0 °F 30.13 in NW 0.9 mph 4.0 mph 72% 0.00 in meteobridge W/m2
03:44 25.5 °F 17.8 °F 30.13 in Calm   9.0 mph 72% 0.00 in meteobridge W/m2
03:49 25.5 °F 18.1 °F 30.13 in WNW 0.9 mph 8.0 mph 73% 0.00 in meteobridge W/m2
03:54 25.5 °F 17.8 °F 30.13 in Calm   6.0 mph 72% 0.00 in meteobridge W/m2
03:59 25.3 °F 17.6 °F 30.13 in Calm   5.0 mph 72% 0.00 in meteobridge W/m2
04:04 25.3 °F 17.6 °F 30.13 in Calm   4.0 mph 72% 0.00 in meteobridge W/m2
04:09 25.3 °F 17.6 °F 30.13 in WNW 2.9 mph 5.0 mph 72% 0.00 in meteobridge W/m2
04:14 25.3 °F 17.6 °F 30.13 in Calm   1.0 mph 72% 0.00 in meteobridge W/m2
04:19 25.3 °F 17.6 °F 30.14 in Calm   11.0 mph 72% 0.00 in meteobridge W/m2
04:24 25.3 °F 17.6 °F 30.14 in Calm   4.0 mph 72% 0.00 in meteobridge W/m2
04:29 25.2 °F 17.1 °F 30.13 in Calm   2.0 mph 71% 0.00 in meteobridge W/m2
04:34 25.2 °F 17.1 °F 30.13 in WNW 0.9 mph 1.0 mph 71% 0.00 in meteobridge W/m2
04:39 25.2 °F 17.1 °F 30.13 in Calm     71% 0.00 in meteobridge W/m2
04:44 25.2 °F 17.1 °F 30.14 in Calm   4.0 mph 71% 0.00 in meteobridge W/m2
04:49 25.0 °F 16.9 °F 30.14 in Calm     71% 0.00 in meteobridge W/m2
04:54 25.0 °F 16.5 °F 30.13 in Calm   4.0 mph 70% 0.00 in meteobridge W/m2
04:59 25.0 °F 16.9 °F 30.13 in Calm   1.0 mph 71% 0.00 in meteobridge W/m2
05:04 25.0 °F 16.5 °F 30.13 in Calm   2.0 mph 70% 0.00 in meteobridge W/m2
05:09 25.0 °F 16.9 °F 30.12 in Calm   1.0 mph 71% 0.00 in meteobridge W/m2
05:14 25.0 °F 16.9 °F 30.12 in Calm   1.0 mph 71% 0.00 in meteobridge W/m2
05:19 25.0 °F 16.9 °F 30.12 in Calm   4.0 mph 71% 0.00 in meteobridge W/m2
05:24 25.0 °F 16.9 °F 30.12 in Calm   5.0 mph 71% 0.00 in meteobridge W/m2
05:29 24.8 °F 16.7 °F 30.12 in SSW 0.9 mph 4.0 mph 71% 0.00 in meteobridge W/m2
05:34 24.8 °F 16.7 °F 30.12 in Calm   5.0 mph 71% 0.00 in meteobridge W/m2
05:39 24.8 °F 16.7 °F 30.12 in Calm   1.0 mph 71% 0.00 in meteobridge W/m2
05:44 24.8 °F 16.7 °F 30.13 in Calm   1.0 mph 71% 0.00 in meteobridge W/m2
05:49 24.6 °F 16.5 °F 30.13 in Calm   2.0 mph 71% 0.00 in meteobridge W/m2
05:54 24.6 °F 16.5 °F 30.14 in Calm   2.0 mph 71% 0.00 in meteobridge W/m2
05:59 24.6 °F 16.5 °F 30.14 in Calm   2.0 mph 71% 0.00 in meteobridge W/m2
06:04 24.6 °F 16.5 °F 30.14 in Calm     71% 0.00 in meteobridge W/m2
06:09 24.6 °F 16.5 °F 30.14 in Calm   3.0 mph 71% 0.00 in meteobridge W/m2
06:14 24.6 °F 16.5 °F 30.14 in Calm   3.0 mph 71% 0.00 in meteobridge W/m2
06:19 24.4 °F 16.3 °F 30.14 in Calm     71% 0.00 in meteobridge W/m2
06:24 24.4 °F 16.3 °F 30.14 in Calm     71% 0.00 in meteobridge W/m2
06:29 24.4 °F 16.3 °F 30.14 in Calm   3.0 mph 71% 0.00 in meteobridge W/m2
06:34 24.4 °F 16.7 °F 30.15 in Calm     72% 0.00 in meteobridge W/m2
06:39 24.4 °F 16.7 °F 30.14 in Calm   4.0 mph 72% 0.00 in meteobridge W/m2
06:44 24.4 °F 16.7 °F 30.14 in Calm     72% 0.00 in meteobridge W/m2
06:49 24.3 °F 16.5 °F 30.14 in NNE 0.9 mph 1.0 mph 72% 0.00 in meteobridge W/m2
06:54 24.3 °F 16.5 °F 30.14 in Calm   1.0 mph 72% 0.00 in meteobridge W/m2
06:59 24.3 °F 16.5 °F 30.14 in Calm     72% 0.00 in meteobridge W/m2
07:04 24.3 °F 16.5 °F 30.14 in WNW 4.0 mph 4.0 mph 72% 0.00 in meteobridge W/m2
07:09 24.1 °F 16.3 °F 30.14 in Calm     72% 0.00 in meteobridge W/m2
07:14 24.1 °F 16.3 °F 30.14 in WNW 0.9 mph 5.0 mph 72% 0.00 in meteobridge W/m2
07:19 24.1 °F 16.3 °F 30.14 in Calm   7.0 mph 72% 0.00 in meteobridge W/m2
07:24 24.1 °F 16.3 °F 30.14 in NW 2.0 mph 6.0 mph 72% 0.00 in meteobridge W/m2
07:29 24.1 °F 16.0 °F 30.15 in Calm   1.0 mph 71% 0.00 in meteobridge W/m2
07:34 24.1 °F 16.0 °F 30.14 in Calm   6.0 mph 71% 0.00 in meteobridge W/m2
07:39 24.1 °F 16.3 °F 30.14 in NNW 2.0 mph 6.0 mph 72% 0.00 in meteobridge W/m2
07:44 24.1 °F 16.3 °F 30.14 in NW 0.9 mph 2.0 mph 72% 0.00 in meteobridge W/m2
07:49 24.3 °F 16.2 °F 30.15 in WNW 8.9 mph 9.0 mph 71% 0.00 in meteobridge W/m2
07:54 24.3 °F 16.2 °F 30.15 in Calm   3.0 mph 71% 0.00 in meteobridge W/m2
07:59 24.4 °F 16.0 °F 30.15 in WNW 2.0 mph 5.0 mph 70% 0.00 in meteobridge W/m2
08:04 24.4 °F 16.3 °F 30.16 in NW 2.0 mph 6.0 mph 71% 0.00 in meteobridge W/m2
08:09 24.4 °F 16.3 °F 30.16 in Calm   6.0 mph 71% 0.00 in meteobridge W/m2
08:14 24.6 °F 16.2 °F 30.17 in WNW 4.0 mph 4.0 mph 70% 0.00 in meteobridge W/m2
08:19 24.6 °F 16.2 °F 30.16 in NW 4.0 mph 6.0 mph 70% 0.00 in meteobridge W/m2
08:24 24.8 °F 16.3 °F 30.16 in WNW 0.9 mph 3.0 mph 70% 0.00 in meteobridge W/m2
08:29 25.0 °F 16.9 °F 30.16 in Calm   9.0 mph 71% 0.00 in meteobridge W/m2
08:34 25.0 °F 16.5 °F 30.17 in Calm     70% 0.00 in meteobridge W/m2
08:39 25.2 °F 16.7 °F 30.19 in Calm   4.0 mph 70% 0.00 in meteobridge W/m2
08:44 25.2 °F 16.7 °F 30.19 in Calm   3.0 mph 70% 0.00 in meteobridge W/m2
08:49 25.3 °F 16.5 °F 30.19 in Calm   4.0 mph 69% 0.00 in meteobridge W/m2
08:54 25.5 °F 16.7 °F 30.19 in Calm     69% 0.00 in meteobridge W/m2
08:59 25.7 °F 16.9 °F 30.19 in Calm   5.0 mph 69% 0.00 in meteobridge W/m2
09:04 26.1 °F 17.2 °F 30.20 in NW 0.9 mph 1.0 mph 69% 0.00 in meteobridge W/m2
09:09 26.2 °F 17.1 °F 30.20 in NNW 2.0 mph 3.0 mph 68% 0.00 in meteobridge W/m2
09:14 26.6 °F 17.4 °F 30.19 in Calm     68% 0.00 in meteobridge W/m2
09:19 27.0 °F 17.8 °F 30.20 in Calm   1.0 mph 68% 0.00 in meteobridge W/m2
09:24 27.1 °F 17.6 °F 30.20 in Calm     67% 0.00 in meteobridge W/m2
09:29 27.3 °F 17.4 °F 30.20 in NW 0.9 mph 4.0 mph 66% 0.00 in meteobridge W/m2
09:34 27.7 °F 17.8 °F 30.20 in Calm     66% 0.00 in meteobridge W/m2
09:39 28.0 °F 18.1 °F 30.20 in Calm     66% 0.00 in meteobridge W/m2
09:44 28.6 °F 18.3 °F 30.21 in WNW 0.9 mph 1.0 mph 65% 0.00 in meteobridge W/m2
09:49 28.8 °F 17.8 °F 30.21 in Calm   4.0 mph 63% 0.00 in meteobridge W/m2
09:54 28.9 °F 17.6 °F 30.21 in Calm   4.0 mph 62% 0.00 in meteobridge W/m2
09:59 29.1 °F 17.8 °F 30.21 in Calm   2.0 mph 62% 0.00 in meteobridge W/m2
10:04 29.3 °F 18.0 °F 30.21 in Calm   4.0 mph 62% 0.00 in meteobridge W/m2
10:09 29.3 °F 18.0 °F 30.21 in Calm   6.0 mph 62% 0.00 in meteobridge W/m2
10:14 29.5 °F 18.1 °F 30.21 in Calm     62% 0.00 in meteobridge W/m2
10:19 29.5 °F 17.8 °F 30.21 in North 0.9 mph 3.0 mph 61% 0.00 in meteobridge W/m2
10:24 29.7 °F 18.3 °F 30.21 in Calm   1.0 mph 62% 0.00 in meteobridge W/m2
10:29 30.0 °F 17.8 °F 30.21 in Calm   3.0 mph 60% 0.00 in meteobridge W/m2
10:34 30.2 °F 18.0 °F 30.21 in Calm     60% 0.00 in meteobridge W/m2
10:39 30.4 °F 17.8 °F 30.21 in Calm     59% 0.00 in meteobridge W/m2
10:44 30.7 °F 18.5 °F 30.22 in Calm     60% 0.00 in meteobridge W/m2
10:49 31.1 °F 18.1 °F 30.22 in Calm   1.0 mph 58% 0.00 in meteobridge W/m2
10:54 31.3 °F 18.1 °F 30.21 in NNE 0.9 mph 2.0 mph 58% 0.00 in meteobridge W/m2
10:59 31.5 °F 18.0 °F 30.22 in Calm   5.0 mph 57% 0.00 in meteobridge W/m2
11:04 31.5 °F 18.0 °F 30.21 in Calm   1.0 mph 57% 0.00 in meteobridge W/m2
11:09 31.6 °F 18.5 °F 30.21 in Calm     58% 0.00 in meteobridge W/m2
11:14 32.0 °F 18.5 °F 30.20 in Calm   2.0 mph 57% 0.00 in meteobridge W/m2
11:19 32.4 °F 18.5 °F 30.20 in Calm     56% 0.00 in meteobridge W/m2
11:24 32.5 °F 19.0 °F 30.21 in Calm     57% 0.00 in meteobridge W/m2
11:29 33.1 °F 19.0 °F 30.21 in Calm     56% 0.00 in meteobridge W/m2
11:34 33.4 °F 19.4 °F 30.20 in Calm     56% 0.00 in meteobridge W/m2
11:39 34.0 °F 19.0 °F 30.21 in Calm   1.0 mph 54% 0.00 in meteobridge W/m2
11:44 34.3 °F 19.4 °F 30.21 in Calm   2.0 mph 54% 0.00 in meteobridge W/m2
11:49 34.5 °F 19.2 °F 30.20 in Calm     53% 0.00 in meteobridge W/m2
11:54 34.9 °F 19.0 °F 30.19 in Calm   7.0 mph 52% 0.00 in meteobridge W/m2
11:59 35.4 °F 19.6 °F 30.19 in Calm   2.0 mph 52% 0.00 in meteobridge W/m2
12:04 35.8 °F 19.4 °F 30.19 in West 4.0 mph 4.0 mph 51% 0.00 in meteobridge W/m2
12:09 36.1 °F 19.2 °F 30.19 in Calm   6.0 mph 50% 0.00 in meteobridge W/m2
12:14 36.1 °F 19.2 °F 30.19 in Calm   1.0 mph 50% 0.00 in meteobridge W/m2
12:19 36.5 °F 19.2 °F 30.19 in Calm   3.0 mph 49% 0.00 in meteobridge W/m2
12:24 36.7 °F 19.4 °F 30.19 in Calm   1.0 mph 49% 0.00 in meteobridge W/m2
12:29 37.0 °F 19.6 °F 30.19 in Calm   4.0 mph 49% 0.00 in meteobridge W/m2
12:34 37.0 °F 19.2 °F 30.19 in NNW 4.0 mph 7.0 mph 48% 0.00 in meteobridge W/m2
12:39 37.0 °F 19.6 °F 30.18 in Calm     49% 0.00 in meteobridge W/m2
12:44 37.4 °F 19.0 °F 30.19 in Calm   3.0 mph 47% 0.00 in meteobridge W/m2
12:49 37.6 °F 19.6 °F 30.18 in Calm   5.0 mph 48% 0.00 in meteobridge W/m2
12:54 37.8 °F 19.8 °F 30.19 in Calm   4.0 mph 48% 0.00 in meteobridge W/m2
12:59 37.8 °F 18.9 °F 30.19 in Calm   7.0 mph 46% 0.00 in meteobridge W/m2
13:04 37.9 °F 19.0 °F 30.19 in Calm   2.0 mph 46% 0.00 in meteobridge W/m2
13:09 38.1 °F 19.2 °F 30.18 in Calm   1.0 mph 46% 0.00 in meteobridge W/m2
13:14 38.3 °F 19.4 °F 30.19 in NW 0.9 mph 6.0 mph 46% 0.00 in meteobridge W/m2
13:19 38.5 °F 19.0 °F 30.18 in Calm   2.0 mph 45% 0.00 in meteobridge W/m2
13:24 38.5 °F 19.0 °F 30.18 in NW 2.0 mph 3.0 mph 45% 0.00 in meteobridge W/m2
13:29 38.7 °F 19.2 °F 30.18 in Calm     45% 0.00 in meteobridge W/m2
13:34 38.7 °F 19.2 °F 30.18 in Calm   1.0 mph 45% 0.00 in meteobridge W/m2
13:39 39.0 °F 19.9 °F 30.18 in NW 0.9 mph 2.0 mph 46% 0.00 in meteobridge W/m2
13:44 39.2 °F 20.7 °F 30.18 in Calm   1.0 mph 47% 0.00 in meteobridge W/m2
13:49 39.0 °F 19.4 °F 30.18 in West 0.9 mph 6.0 mph 45% 0.00 in meteobridge W/m2
13:54 39.2 °F 20.1 °F 30.18 in NNW 4.9 mph 6.0 mph 46% 0.00 in meteobridge W/m2
13:59 39.4 °F 19.2 °F 30.18 in Calm   3.0 mph 44% 0.00 in meteobridge W/m2
14:04 39.6 °F 20.5 °F 30.17 in Calm   4.0 mph 46% 0.00 in meteobridge W/m2
14:09 39.6 °F 19.9 °F 30.17 in Calm   1.0 mph 45% 0.00 in meteobridge W/m2
14:14 39.7 °F 19.6 °F 30.18 in NW 2.0 mph 5.0 mph 44% 0.00 in meteobridge W/m2
14:19 39.7 °F 19.6 °F 30.17 in Calm   4.0 mph 44% 0.00 in meteobridge W/m2
14:24 40.1 °F 19.9 °F 30.17 in Calm   5.0 mph 44% 0.00 in meteobridge W/m2
14:29 40.3 °F 20.7 °F 30.17 in Calm   5.0 mph 45% 0.00 in meteobridge W/m2
14:34 40.1 °F 19.4 °F 30.17 in NW 6.0 mph 6.0 mph 43% 0.00 in meteobridge W/m2
14:39 40.1 °F 20.5 °F 30.17 in Calm     45% 0.00 in meteobridge W/m2
14:44 40.3 °F 21.2 °F 30.17 in Calm     46% 0.00 in meteobridge W/m2
14:49 40.3 °F 20.7 °F 30.17 in Calm   1.0 mph 45% 0.00 in meteobridge W/m2
14:54 40.5 °F 22.3 °F 30.17 in Calm     48% 0.00 in meteobridge W/m2
14:59 40.6 °F 21.9 °F 30.17 in Calm     47% 0.00 in meteobridge W/m2
15:04 40.6 °F 21.9 °F 30.17 in Calm     47% 0.00 in meteobridge W/m2
15:09 40.6 °F 21.9 °F 30.17 in Calm     47% 0.00 in meteobridge W/m2
15:14 40.6 °F 21.9 °F 30.17 in Calm     47% 0.00 in meteobridge W/m2
15:19 40.5 °F 21.7 °F 30.17 in Calm   1.0 mph 47% 0.00 in meteobridge W/m2
15:24 40.3 °F 22.6 °F 30.17 in Calm     49% 0.00 in meteobridge W/m2
15:29 39.9 °F 22.3 °F 30.17 in Calm   2.0 mph 49% 0.00 in meteobridge W/m2
15:34 39.7 °F 22.1 °F 30.17 in Calm     49% 0.00 in meteobridge W/m2
15:39 39.6 °F 22.5 °F 30.17 in Calm   1.0 mph 50% 0.00 in meteobridge W/m2
15:44 39.6 °F 21.9 °F 30.17 in Calm   2.0 mph 49% 0.00 in meteobridge W/m2
15:49 39.2 °F 22.1 °F 30.18 in Calm     50% 0.00 in meteobridge W/m2
15:54 39.0 °F 21.6 °F 30.18 in Calm   1.0 mph 49% 0.00 in meteobridge W/m2
15:59 38.8 °F 21.7 °F 30.18 in Calm   1.0 mph 50% 0.00 in meteobridge W/m2
16:04 38.7 °F 21.2 °F 30.17 in Calm     49% 0.00 in meteobridge W/m2
16:09 38.5 °F 22.5 °F 30.18 in Calm   1.0 mph 52% 0.00 in meteobridge W/m2
16:14 38.5 °F 22.5 °F 30.17 in Calm     52% 0.00 in meteobridge W/m2
16:19 38.1 °F 22.5 °F 30.17 in Calm     53% 0.00 in meteobridge W/m2
16:24 38.1 °F 22.5 °F 30.17 in Calm   1.0 mph 53% 0.00 in meteobridge W/m2
16:29 37.9 °F 23.2 °F 30.17 in Calm     55% 0.00 in meteobridge W/m2
16:34 37.9 °F 23.2 °F 30.17 in Calm     55% 0.00 in meteobridge W/m2
16:39 37.9 °F 23.7 °F 30.17 in Calm     56% 0.00 in meteobridge W/m2
16:44 37.9 °F 23.2 °F 30.16 in Calm     55% 0.00 in meteobridge W/m2
16:49 37.9 °F 22.8 °F 30.16 in Calm     54% 0.00 in meteobridge W/m2
16:54 37.9 °F 23.2 °F 30.16 in Calm     55% 0.00 in meteobridge W/m2
16:59 37.8 °F 23.5 °F 30.16 in Calm     56% 0.00 in meteobridge W/m2
17:04 37.6 °F 22.8 °F 30.16 in Calm     55% 0.00 in meteobridge W/m2
17:09 37.4 °F 23.9 °F 30.16 in Calm     58% 0.00 in meteobridge W/m2
17:14 37.2 °F 22.1 °F 30.16 in Calm     54% 0.00 in meteobridge W/m2
17:19 37.0 °F 23.7 °F 30.16 in Calm     58% 0.00 in meteobridge W/m2
17:24 36.9 °F 23.5 °F 30.17 in Calm     58% 0.00 in meteobridge W/m2
17:29 36.5 °F 22.6 °F 30.16 in Calm     57% 0.00 in meteobridge W/m2
17:34 36.1 °F 22.8 °F 30.17 in Calm     58% 0.00 in meteobridge W/m2
17:39 36.0 °F 24.6 °F 30.18 in Calm     63% 0.00 in meteobridge W/m2
17:44 35.6 °F 23.9 °F 30.17 in Calm     62% 0.00 in meteobridge W/m2
17:49 35.2 °F 23.9 °F 30.17 in Calm     63% 0.00 in meteobridge W/m2
17:54 35.1 °F 23.4 °F 30.17 in Calm     62% 0.00 in meteobridge W/m2
17:59 34.5 °F 22.8 °F 30.18 in Calm     62% 0.00 in meteobridge W/m2
18:04 34.3 °F 22.6 °F 30.18 in Calm     62% 0.00 in meteobridge W/m2
18:09 34.2 °F 22.8 °F 30.17 in Calm     63% 0.00 in meteobridge W/m2
18:14 33.8 °F 24.1 °F 30.18 in Calm     67% 0.00 in meteobridge W/m2
18:19 33.4 °F 24.1 °F 30.18 in Calm     68% 0.00 in meteobridge W/m2
18:24 33.3 °F 23.9 °F 30.18 in Calm     68% 0.00 in meteobridge W/m2
18:29 33.1 °F 24.1 °F 30.18 in Calm     69% 0.00 in meteobridge W/m2
18:34 32.9 °F 23.5 °F 30.19 in Calm     68% 0.00 in meteobridge W/m2
18:39 32.7 °F 23.4 °F 30.19 in Calm     68% 0.00 in meteobridge W/m2
18:44 32.5 °F 23.2 °F 30.19 in Calm     68% 0.00 in meteobridge W/m2
18:49 32.4 °F 23.0 °F 30.19 in Calm     68% 0.00 in meteobridge W/m2
18:54 32.2 °F 22.8 °F 30.19 in Calm     68% 0.00 in meteobridge W/m2
18:59 32.0 °F 23.0 °F 30.20 in Calm     69% 0.00 in meteobridge W/m2
19:04 31.8 °F 22.8 °F 30.20 in Calm     69% 0.00 in meteobridge W/m2
19:09 31.6 °F 23.0 °F 30.20 in Calm     70% 0.00 in meteobridge W/m2
19:14 31.5 °F 22.5 °F 30.20 in Calm     69% 0.00 in meteobridge W/m2
19:19 31.3 °F 22.3 °F 30.20 in Calm     69% 0.00 in meteobridge W/m2
19:24 31.1 °F 22.1 °F 30.19 in Calm     69% 0.00 in meteobridge W/m2
19:29 30.7 °F 22.1 °F 30.20 in Calm     70% 0.00 in meteobridge W/m2
19:34 30.6 °F 21.9 °F 30.19 in Calm     70% 0.00 in meteobridge W/m2
19:39 30.4 °F 22.1 °F 30.19 in Calm     71% 0.00 in meteobridge W/m2
19:44 30.2 °F 21.9 °F 30.19 in Calm     71% 0.00 in meteobridge W/m2
19:49 30.0 °F 22.1 °F 30.19 in Calm     72% 0.00 in meteobridge W/m2
19:54 30.0 °F 22.1 °F 30.19 in Calm     72% 0.00 in meteobridge W/m2
19:59 29.8 °F 22.3 °F 30.19 in Calm     73% 0.00 in meteobridge W/m2
20:04 29.7 °F 22.1 °F 30.20 in Calm     73% 0.00 in meteobridge W/m2
20:09 29.7 °F 22.1 °F 30.20 in Calm     73% 0.00 in meteobridge W/m2
20:14 29.7 °F 22.1 °F 30.19 in Calm     73% 0.00 in meteobridge W/m2
20:19 29.5 °F 21.9 °F 30.19 in Calm     73% 0.00 in meteobridge W/m2
20:24 29.5 °F 22.3 °F 30.19 in Calm     74% 0.00 in meteobridge W/m2
20:29 29.3 °F 22.1 °F 30.19 in Calm     74% 0.00 in meteobridge W/m2
20:34 29.1 °F 21.9 °F 30.20 in Calm     74% 0.00 in meteobridge W/m2
20:39 29.1 °F 21.9 °F 30.20 in Calm     74% 0.00 in meteobridge W/m2
20:44 29.1 °F 21.9 °F 30.20 in Calm     74% 0.00 in meteobridge W/m2
20:49 28.9 °F 21.7 °F 30.20 in Calm     74% 0.00 in meteobridge W/m2
20:54 28.9 °F 22.1 °F 30.20 in Calm     75% 0.00 in meteobridge W/m2
20:59 28.9 °F 22.1 °F 30.19 in Calm     75% 0.00 in meteobridge W/m2
21:04 28.8 °F 21.9 °F 30.19 in Calm     75% 0.00 in meteobridge W/m2
21:09 28.8 °F 21.9 °F 30.20 in Calm     75% 0.00 in meteobridge W/m2
21:14 28.8 °F 22.1 °F 30.19 in Calm     76% 0.00 in meteobridge W/m2
21:19 28.6 °F 21.9 °F 30.19 in Calm     76% 0.00 in meteobridge W/m2
21:24 28.6 °F 21.9 °F 30.19 in Calm     76% 0.00 in meteobridge W/m2
21:29 28.6 °F 22.3 °F 30.19 in Calm     77% 0.00 in meteobridge W/m2
21:34 28.6 °F 22.3 °F 30.19 in Calm     77% 0.00 in meteobridge W/m2
21:39 28.4 °F 22.1 °F 30.19 in Calm     77% 0.00 in meteobridge W/m2
21:44 28.4 °F 22.1 °F 30.20 in Calm     77% 0.00 in meteobridge W/m2
21:49 28.4 °F 22.1 °F 30.20 in Calm     77% 0.00 in meteobridge W/m2
21:54 28.2 °F 21.9 °F 30.20 in Calm     77% 0.00 in meteobridge W/m2
21:59 28.2 °F 21.9 °F 30.20 in Calm     77% 0.00 in meteobridge W/m2
22:04 28.2 °F 21.9 °F 30.21 in Calm     77% 0.00 in meteobridge W/m2
22:09 28.0 °F 21.7 °F 30.21 in Calm     77% 0.00 in meteobridge W/m2
22:14 28.0 °F 21.7 °F 30.21 in Calm     77% 0.00 in meteobridge W/m2
22:19 28.0 °F 21.7 °F 30.21 in Calm     77% 0.00 in meteobridge W/m2
22:24 28.0 °F 21.7 °F 30.21 in Calm     77% 0.00 in meteobridge W/m2
22:29 27.9 °F 21.6 °F 30.20 in Calm     77% 0.00 in meteobridge W/m2
22:34 27.9 °F 21.9 °F 30.20 in Calm     78% 0.00 in meteobridge W/m2
22:39 27.9 °F 21.9 °F 30.20 in Calm     78% 0.00 in meteobridge W/m2
22:44 27.9 °F 21.9 °F 30.20 in Calm     78% 0.00 in meteobridge W/m2
22:49 27.9 °F 21.9 °F 30.20 in Calm     78% 0.00 in meteobridge W/m2
22:54 27.9 °F 21.9 °F 30.21 in Calm     78% 0.00 in meteobridge W/m2
22:59 27.9 °F 21.9 °F 30.21 in Calm     78% 0.00 in meteobridge W/m2
23:04 27.9 °F 21.9 °F 30.21 in Calm     78% 0.00 in meteobridge W/m2
23:09 27.9 °F 21.9 °F 30.21 in Calm     78% 0.00 in meteobridge W/m2
23:14 27.9 °F 21.9 °F 30.20 in Calm     78% 0.00 in meteobridge W/m2
23:19 27.9 °F 21.9 °F 30.20 in Calm     78% 0.00 in meteobridge W/m2
23:24 27.9 °F 21.9 °F 30.21 in Calm     78% 0.00 in meteobridge W/m2
23:29 27.9 °F 21.9 °F 30.21 in Calm     78% 0.00 in meteobridge W/m2
23:34 27.9 °F 21.9 °F 30.21 in Calm     78% 0.00 in meteobridge W/m2
23:39 27.9 °F 21.9 °F 30.21 in Calm     78% 0.00 in meteobridge W/m2
23:44 27.9 °F 21.9 °F 30.22 in Calm     78% 0.00 in meteobridge W/m2
23:49 27.9 °F 21.9 °F 30.23 in Calm     78% 0.00 in meteobridge W/m2
23:54 27.9 °F 21.9 °F 30.23 in Calm     78% 0.00 in meteobridge W/m2
23:59 27.9 °F 21.9 °F 30.22 in Calm     78% 0.00 in meteobridge W/m2
EllijayWeather
Compliments of Weather Underground - 2.5 mb